GW4987 Weather Reports


time (UTC)temp
C
wind
direction
speed
KPH
gust
KPH
rain 1hr
cm
rain 24hr
cm
rain mn
cm
humidity
%
barometer
mb
20260905143503 22 162 3.2 6.4 0.00 0.00 0.00 45 1022.5
20260905143003 22 183 3.2 3.2 0.00 0.00 0.00 46 1022.6
20260905142504 21 23 0.0 3.2 0.00 0.00 0.00 48 1022.6
20260905141003 19 79 3.2 4.8 0.00 0.00 0.00 53 1022.6
20260905140503 18 66 0.0 4.8 0.00 0.00 0.00 55 1022.6
20260905140004 18 130 3.2 4.8 0.00 0.00 0.00 56 1022.5
20260905135504 18 234 4.8 4.8 0.00 0.00 0.00 57 1022.4
20260905135004 17 339 0.0 3.2 0.00 0.00 0.00 59 1022.3
20260905134503 16 77 3.2 3.2 0.00 0.00 0.00 63 1022.4
20260905134004 15 259 3.2 8.0 0.00 0.00 0.00 65 1022.3
20260905133503 15 271 6.4 8.0 0.00 0.00 0.00 66 1022.3
20260905133003 14 260 3.2 4.8 0.00 0.00 0.00 67 1022.3
20260905132503 14 201 4.8 4.8 0.00 0.00 0.00 68 1022.3
20260905132004 14 113 6.4 6.4 0.00 0.00 0.00 67 1022.2
20260905131503 13 80 0.0 3.2 0.00 0.00 0.00 68 1022.0
20260905131003 13 283 4.8 6.4 0.00 0.00 0.00 68 1021.9
20260905130504 13 279 4.8 6.4 0.00 0.00 0.00 69 1021.8
20260905130004 13 268 6.4 8.0 0.00 0.00 0.00 68 1022.1
20260905125504 13 262 8.0 11.3 0.00 0.00 0.00 68 1022.0
20260905125004 13 279 4.8 8.0 0.00 0.00 0.00 67 1021.9
20260905123003 13 194 0.0 3.2 0.00 0.00 0.00 65 1021.7
20260905122503 13 37 0.0 0.0 0.00 0.00 0.00 64 1021.7
20260905122004 14 43 0.0 3.2 0.00 0.00 0.00 63 1021.8
20260905121503 15 88 4.8 6.4 0.00 0.00 0.00 61 1021.6
20260905121003 16 308 0.0 6.4 0.00 0.00 0.00 58 1021.7
20260905120503 16 265 6.4 8.0 0.00 0.00 0.00 57 1021.8
20260905120004 16 263 6.4 9.7 0.00 0.00 0.00 57 1021.7
20260905115504 17 261 8.0 8.0 0.00 0.00 0.00 55 1021.7
20260905113504 16 265 8.0 11.3 0.00 0.00 0.00 54 1021.7
20260905113004 16 269 8.0 9.7 0.00 0.00 0.00 56 1021.6
20260905112504 15 267 4.8 8.0 0.00 0.00 0.00 57 1021.6
20260905112004 15 261 8.0 8.0 0.00 0.00 0.00 58 1021.7
20260905111503 15 264 6.4 8.0 0.00 0.00 0.00 59 1021.7
20260905111004 14 237 4.8 8.0 0.00 0.00 0.00 60 1021.9
20260905110503 13 253 6.4 6.4 0.00 0.00 0.00 62 1021.8
20260905110004 13 253 4.8 6.4 0.00 0.00 0.00 62 1021.8
20260905105504 12 249 3.2 8.0 0.00 0.00 0.00 64 1021.7
20260905105003 13 272 4.8 4.8 0.00 0.00 0.00 63 1021.5
20260905104503 13 247 4.8 4.8 0.00 0.00 0.00 62 1021.7
20260905104003 13 263 4.8 6.4 0.00 0.00 0.00 62 1021.8
20260905103503 13 259 3.2 4.8 0.00 0.00 0.00 60 1021.6
20260905103004 14 260 4.8 6.4 0.00 0.00 0.00 58 1021.7
20260905102504 15 234 3.2 6.4 0.00 0.00 0.00 57 1021.6
20260905102004 15 215 3.2 4.8 0.00 0.00 0.00 56 1021.5
20260905101504 15 255 4.8 6.4 0.00 0.00 0.00 54 1021.5
20260905101003 16 265 6.4 6.4 0.00 0.00 0.00 54 1021.3
20260905100503 16 232 4.8 6.4 0.00 0.00 0.00 53 1021.4
20260905100003 16 255 6.4 9.7 0.00 0.00 0.00 53 1021.6
20260905095504 16 197 4.8 9.7 0.00 0.00 0.00 54 1021.7
20260905095004 16 203 9.7 11.3 0.00 0.00 0.00 52 1021.8
20260905094504 16 204 9.7 19.3 0.00 0.00 0.00 52 1021.7
20260905094004 15 243 8.0 9.7 0.00 0.00 0.00 53 1021.7
20260905093503 15 185 6.4 11.3 0.00 0.00 0.00 53 1021.8
20260905093004 15 256 8.0 8.0 0.00 0.00 0.00 53 1021.6
20260905092504 15 248 4.8 8.0 0.00 0.00 0.00 53 1021.7
20260905092004 15 208 4.8 8.0 0.00 0.00 0.00 52 1021.8
20260905091504 15 228 8.0 8.0 0.00 0.00 0.00 53 1021.8
20260905091003 15 216 8.0 8.0 0.00 0.00 0.00 53 1021.8
20260905090503 15 229 0.0 9.7 0.00 0.00 0.00 52 1021.9
20260905090004 14 202 6.4 8.0 0.00 0.00 0.00 54 1021.7
20260905085503 13 225 4.8 6.4 0.00 0.00 0.00 55 1021.8
20260905085003 13 269 0.0 6.4 0.00 0.00 0.00 56 1021.8
20260905084504 13 244 3.2 6.4 0.00 0.00 0.00 56 1021.8
20260905084004 13 247 3.2 4.8 0.00 0.00 0.00 55 1021.9
20260905083504 14 256 3.2 8.0 0.00 0.00 0.00 54 1021.9
20260905083004 14 242 0.0 6.4 0.00 0.00 0.00 54 1021.8
20260905082503 14 274 3.2 3.2 0.00 0.00 0.00 53 1022.0
20260905082003 14 280 4.8 8.0 0.00 0.00 0.00 53 1022.1
20260905081504 14 257 4.8 4.8 0.00 0.00 0.00 54 1022.1
20260905075503 14 263 6.4 6.4 0.00 0.00 0.00 54 1022.0
20260905075003 14 261 3.2 4.8 0.00 0.00 0.00 55 1022.1
20260905074503 15 264 4.8 6.4 0.00 0.00 0.00 53 1021.9
20260905074003 15 273 6.4 8.0 0.00 0.00 0.00 53 1021.8
20260905073503 15 267 4.8 4.8 0.00 0.00 0.00 53 1022.2
20260905073004 15 267 4.8 4.8 0.00 0.00 0.00 52 1022.0
20260905071004 16 259 4.8 6.4 0.00 0.00 0.00 50 1022.0
20260905070504 16 260 3.2 4.8 0.00 0.00 0.00 49 1022.0
20260905070004 16 266 3.2 4.8 0.00 0.00 0.00 49 1022.0
20260905065504 17 266 3.2 4.8 0.00 0.00 0.00 48 1022.1
20260905065004 17 261 4.8 4.8 0.00 0.00 0.00 46 1022.1
20260905064504 17 272 3.2 4.8 0.00 0.00 0.00 46 1022.2
20260905062503 18 229 4.8 8.0 0.00 0.00 0.00 43 1021.8
20260905062003 19 240 4.8 4.8 0.00 0.00 0.00 43 1021.7
20260905061504 18 259 4.8 4.8 0.00 0.00 0.00 43 1021.9
20260905054004 20 254 0.0 4.8 0.00 0.00 0.00 44 1021.7
20260905053504 20 237 4.8 6.4 0.00 0.00 0.00 44 1021.8
20260905053004 20 201 3.2 4.8 0.00 0.00 0.00 43 1021.8
20260905052503 20 229 4.8 6.4 0.00 0.00 0.00 43 1021.8
20260905052003 20 219 6.4 8.0 0.00 0.00 0.00 44 1021.9
20260905051503 20 224 4.8 8.0 0.00 0.00 0.00 44 1021.8
20260905051003 21 215 6.4 9.7 0.00 0.00 0.00 43 1021.6
20260905050503 21 219 4.8 9.7 0.00 0.00 0.00 43 1021.7
20260905050004 21 205 8.0 8.0 0.00 0.00 0.00 42 1021.7
20260905045504 21 199 6.4 6.4 0.00 0.00 0.00 42 1021.8
20260905045004 21 209 3.2 11.3 0.00 0.00 0.00 42 1021.5
20260905044504 21 190 8.0 14.5 0.00 0.00 0.00 43 1021.5
20260905042504 21 215 6.4 9.7 0.00 0.00 0.00 51 1021.5
20260905042004 22 188 11.3 16.1 0.00 0.00 0.00 50 1021.6
20260905041504 22 194 12.9 14.5 0.00 0.00 0.00 51 1021.7
20260905041003 21 181 11.3 14.5 0.00 0.00 0.00 51 1021.3
20260905040503 21 193 8.0 11.3 0.00 0.00 0.00 51 1021.3
20260905040004 22 178 6.4 14.5 0.00 0.00 0.00 50 1021.3
20260905035503 22 173 14.5 14.5 0.00 0.00 0.00 50 1021.4
20260905035003 22 208 11.3 14.5 0.00 0.00 0.00 50 1021.5
20260905034504 22 173 8.0 12.9 0.00 0.00 0.00 50 1021.3
20260905032503 22 224 4.8 12.9 0.00 0.00 0.00 50 1021.0
20260905032003 22 217 9.7 17.7 0.00 0.00 0.00 50 1021.1
20260905031504 22 213 6.4 14.5 0.00 0.00 0.00 50 1021.3
20260905031003 22 188 9.7 12.9 0.00 0.00 0.00 50 1020.9
20260905030504 22 226 8.0 16.1 0.00 0.00 0.00 50 1020.7
20260905030004 22 224 8.0 12.9 0.00 0.00 0.00 49 1020.7
20260905024003 22 167 9.7 20.9 0.00 0.00 0.00 47 1020.7
20260905023503 22 177 11.3 16.1 0.00 0.00 0.00 47 1020.4
20260905023003 22 226 9.7 24.1 0.00 0.00 0.00 46 1020.5
20260905022503 22 196 8.0 22.5 0.00 0.00 0.00 46 1020.5
20260905022003 22 222 6.4 12.9 0.00 0.00 0.00 46 1020.5
20260905021504 22 213 16.1 24.1 0.00 0.00 0.00 45 1020.5
20260905015503 23 197 17.7 20.9 0.00 0.00 0.00 44 1020.4
20260905015003 23 187 19.3 20.9 0.00 0.00 0.00 44 1020.5
20260905014504 23 200 12.9 24.1 0.00 0.00 0.00 43 1020.4
20260905014003 23 214 11.3 16.1 0.00 0.00 0.00 43 1020.4
20260905013503 23 208 16.1 27.4 0.00 0.00 0.00 42 1020.3
20260905013004 23 211 17.7 22.5 0.00 0.00 0.00 42 1020.4
20260905012504 23 190 29.0 30.6 0.00 0.00 0.00 41 1020.4
20260905012004 24 194 20.9 32.2 0.00 0.00 0.00 40 1020.3
20260905011504 24 195 12.9 35.4 0.00 0.00 0.00 41 1020.3
20260905011004 24 213 14.5 29.0 0.00 0.00 0.00 41 1020.3
20260905010504 24 215 16.1 20.9 0.00 0.00 0.00 41 1020.2
20260905010004 25 216 14.5 22.5 0.00 0.00 0.00 40 1020.2
20260905005504 25 206 17.7 30.6 0.00 0.00 0.00 39 1020.3
20260905005003 25 217 22.5 29.0 0.00 0.00 0.00 41 1020.2
20260905004504 25 202 12.9 25.7 0.00 0.00 0.00 41 1020.3
20260905004003 25 247 14.5 27.4 0.00 0.00 0.00 41 1020.2
20260905003503 25 183 12.9 33.8 0.00 0.00 0.00 41 1020.2
20260905003004 25 218 16.1 25.7 0.00 0.00 0.00 41 1020.4
20260905002503 24 204 22.5 41.8 0.00 0.00 0.00 42 1020.4
20260905002003 25 202 22.5 41.8 0.00 0.00 0.00 43 1020.3
20260905001504 25 207 20.9 38.6 0.00 0.00 0.00 41 1020.4
20260905001003 25 187 22.5 35.4 0.00 0.00 0.00 41 1020.4
20260905000503 24 214 17.7 27.4 0.00 0.00 0.00 43 1020.4
20260905000004 24 209 17.7 37.0 0.00 0.00 0.00 44 1020.4
20260904235504 25 233 20.9 37.0 0.00 0.00 0.00 43 1020.3
20260904235004 25 214 24.1 46.7 0.00 0.00 0.00 42 1020.3
20260904234504 26 199 25.7 46.7 0.00 0.00 0.00 40 1020.2
20260904234004 26 205 16.1 24.1 0.00 0.00 0.00 41 1020.3
20260904233504 26 239 20.9 29.0 0.00 0.00 0.00 41 1020.3
20260904233004 25 241 16.1 27.4 0.00 0.00 0.00 41 1020.5
20260904232504 25 205 24.1 35.4 0.00 0.00 0.00 42 1020.2
20260904232004 25 220 20.9 29.0 0.00 0.00 0.00 43 1020.5
20260904231504 25 191 14.5 38.6 0.00 0.00 0.00 43 1020.3
20260904231003 26 220 20.9 33.8 0.00 0.00 0.00 40 1020.5
20260904230503 25 188 6.4 27.4 0.00 0.00 0.00 41 1020.3
20260904230004 25 210 8.0 27.4 0.00 0.00 0.00 41 1020.4
20260904225504 25 213 20.9 40.2 0.00 0.00 0.00 41 1020.4
20260904225004 26 275 37.0 38.6 0.00 0.00 0.00 40 1020.5
20260904224504 26 187 14.5 40.2 0.00 0.00 0.00 41 1020.5
20260904224003 26 207 17.7 33.8 0.00 0.00 0.00 40 1020.4
20260904223503 26 212 19.3 32.2 0.00 0.00 0.00 40 1020.5
20260904223004 25 207 19.3 35.4 0.00 0.00 0.00 40 1020.6
20260904222504 26 220 16.1 33.8 0.00 0.00 0.00 39 1020.6
20260904222004 26 258 12.9 20.9 0.00 0.00 0.00 38 1020.4
20260904221503 26 214 14.5 24.1 0.00 0.00 0.00 40 1020.7
20260904221003 26 200 16.1 25.7 0.00 0.00 0.00 41 1020.6
20260904220503 26 183 17.7 24.1 0.00 0.00 0.00 40 1020.6
20260904220003 26 187 8.0 24.1 0.00 0.00 0.00 40 1020.7
20260904215503 26 231 14.5 32.2 0.00 0.00 0.00 41 1020.8
20260904215003 26 253 16.1 24.1 0.00 0.00 0.00 41 1020.8
20260904211503 24 164 16.1 38.6 0.00 0.00 0.00 44 1021.1
20260904211003 24 247 20.9 43.5 0.00 0.00 0.00 45 1020.9
20260904210503 25 223 24.1 27.4 0.00 0.00 0.00 45 1021.1
20260904210004 25 197 11.3 27.4 0.00 0.00 0.00 44 1021.3
20260904205503 25 170 12.9 32.2 0.00 0.00 0.00 42 1021.1
20260904205004 24 205 25.7 38.6 0.00 0.00 0.00 45 1021.3
20260904204503 25 226 17.7 29.0 0.00 0.00 0.00 42 1021.0
20260904204003 24 186 22.5 22.5 0.00 0.00 0.00 47 1021.0
20260904203504 25 141 12.9 30.6 0.00 0.00 0.00 46 1021.3
20260904203004 24 173 20.9 33.8 0.00 0.00 0.00 47 1021.5
20260904202504 23 169 16.1 27.4 0.00 0.00 0.00 49 1021.5
20260904202004 23 200 8.0 33.8 0.00 0.00 0.00 49 1021.0
20260904201503 24 189 19.3 32.2 0.00 0.00 0.00 46 1021.3
20260904201003 24 145 11.3 24.1 0.00 0.00 0.00 49 1021.1
20260904200504 25 189 14.5 48.3 0.00 0.00 0.00 47 1021.5
20260904200004 24 188 14.5 16.1 0.00 0.00 0.00 49 1021.6
20260904195503 23 200 22.5 29.0 0.00 0.00 0.00 50 1021.5
20260904195004 24 190 16.1 27.4 0.00 0.00 0.00 47 1021.7
20260904194503 25 211 14.5 38.6 0.00 0.00 0.00 48 1021.5
20260904194003 25 161 9.7 35.4 0.00 0.00 0.00 46 1021.6
20260904193504 24 197 16.1 24.1 0.00 0.00 0.00 49 1021.9
20260904193004 25 160 20.9 30.6 0.00 0.00 0.00 48 1021.7
20260904192504 25 167 8.0 24.1 0.00 0.00 0.00 49 1021.6
20260904192004 25 208 16.1 33.8 0.00 0.00 0.00 47 1021.4
20260904191503 25 196 14.5 25.7 0.00 0.00 0.00 47 1021.6
20260904191004 24 156 4.8 38.6 0.00 0.00 0.00 49 1021.9
20260904190503 25 185 9.7 24.1 0.00 0.00 0.00 50 1021.8
20260904190003 24 163 17.7 30.6 0.00 0.00 0.00 50 1021.7
20260904185503 24 212 20.9 35.4 0.00 0.00 0.00 50 1021.7
20260904185004 24 155 8.0 25.7 0.00 0.00 0.00 52 1021.8
20260904184503 24 177 9.7 33.8 0.00 0.00 0.00 52 1022.0
20260904184003 24 163 16.1 41.8 0.00 0.00 0.00 51 1021.9
20260904183504 23 167 12.9 25.7 0.00 0.00 0.00 53 1021.9
20260904183004 22 250 17.7 29.0 0.00 0.00 0.00 56 1022.2
20260904182503 23 203 12.9 27.4 0.00 0.00 0.00 54 1022.0
20260904182004 23 209 22.5 35.4 0.00 0.00 0.00 49 1022.2
20260904180003 23 160 14.5 22.5 0.00 0.00 0.00 56 1022.1
20260904175503 23 205 14.5 25.7 0.00 0.00 0.00 51 1022.3
20260904175003 24 211 16.1 30.6 0.00 0.00 0.00 52 1022.2
20260904174503 23 176 27.4 38.6 0.00 0.00 0.00 52 1022.3
20260904174003 23 211 20.9 32.2 0.00 0.00 0.00 53 1022.2
20260904173504 24 116 14.5 29.0 0.00 0.00 0.00 53 1022.2
20260904173004 23 177 12.9 24.1 0.00 0.00 0.00 56 1022.1
20260904172504 23 159 16.1 35.4 0.00 0.00 0.00 55 1022.2
20260904172003 23 221 17.7 32.2 0.00 0.00 0.00 57 1022.1
20260904171503 23 176 12.9 27.4 0.00 0.00 0.00 55 1022.0
20260904171004 23 211 12.9 24.1 0.00 0.00 0.00 58 1022.2
20260904170504 22 224 17.7 19.3 0.00 0.00 0.00 59 1022.1
20260904170004 22 133 17.7 33.8 0.00 0.00 0.00 60 1022.1
20260904165504 22 161 14.5 30.6 0.00 0.00 0.00 59 1022.1
20260904165003 22 178 9.7 27.4 0.00 0.00 0.00 60 1022.1
20260904164503 22 244 4.8 29.0 0.00 0.00 0.00 60 1022.0
20260904164003 22 130 11.3 32.2 0.00 0.00 0.00 61 1021.8
20260904163504 22 169 4.8 25.7 0.00 0.00 0.00 61 1021.8
20260904163004 22 139 22.5 25.7 0.00 0.00 0.00 62 1021.7
20260904162504 22 132 24.1 30.6 0.00 0.00 0.00 63 1021.7
20260904162003 22 134 4.8 19.3 0.00 0.00 0.00 62 1021.8
20260904161504 21 163 14.5 22.5 0.00 0.00 0.00 64 1021.9
20260904161004 21 224 16.1 25.7 0.00 0.00 0.00 63 1021.7
20260904160503 21 159 32.2 46.7 0.00 0.00 0.00 64 1021.7
20260904160003 21 125 17.7 25.7 0.00 0.00 0.00 65 1021.7
20260904155504 21 162 20.9 32.2 0.00 0.00 0.00 66 1021.7
20260904155003 21 201 19.3 29.0 0.00 0.00 0.00 67 1021.6
20260904154503 21 146 14.5 35.4 0.00 0.00 0.00 68 1021.5
20260904154004 21 150 12.9 30.6 0.00 0.00 0.00 69 1021.6
20260904153504 21 140 4.8 20.9 0.00 0.00 0.00 69 1021.6
20260904153004 20 112 16.1 41.8 0.00 0.00 0.00 71 1021.6
20260904152504 20 208 17.7 20.9 0.00 0.00 0.00 71 1021.4
20260904152003 20 147 17.7 33.8 0.00 0.00 0.00 74 1021.5
20260904151503 20 104 11.3 27.4 0.00 0.00 0.00 76 1021.4
20260904151004 20 171 12.9 29.0 0.00 0.00 0.00 76 1021.5
20260904150504 20 103 17.7 29.0 0.00 0.00 0.00 77 1021.4
20260904150004 20 164 8.0 17.7 0.00 0.00 0.00 78 1021.1
20260904145504 20 181 8.0 29.0 0.00 0.00 0.00 78 1021.5
20260904145004 20 144 14.5 20.9 0.00 0.00 0.00 79 1021.1
20260904144504 19 130 9.7 32.2 0.00 0.00 0.00 79 1021.3
20260904144004 19 143 16.1 32.2 0.00 0.00 0.00 79 1021.4